TimeMDT,TemperatureF,Dew PointF,Humidity,Sea Level PressureIn,VisibilityMPH,Wind Direction,Wind SpeedMPH,Gust SpeedMPH,PrecipitationIn,Events,Conditions,WindDirDegrees,DateUTC
12:44 AM,77.0,60.8,57,29.88,10.0,Calm,Calm,-,N/A,,Clear,0,2012-10-08 06:44:00
1:43 AM,75.2,59.0,57,29.88,10.0,Calm,Calm,-,N/A,,Clear,0,2012-10-08 07:43:00
2:30 AM,75,62,54,29.86,5,NE,2.2,,,,,50,2012-10-08 08:30:00
4:46 AM,73.4,62.6,69,29.87,10.0,Calm,Calm,-,N/A,,Clear,0,2012-10-08 10:46:00
5:30 AM,68,56,56,29.86,5,NE,2.2,,,,,50,2012-10-08 11:30:00
5:44 AM,71.6,60.8,69,29.85,10.0,Calm,Calm,-,N/A,,Clear,0,2012-10-08 11:44:00
6:41 AM,71.6,57.2,60,29.90,10.0,Calm,Calm,-,N/A,,Clear,0,2012-10-08 12:41:00
7:41 AM,71.6,55.4,57,29.92,10.0,East,3.5,-,N/A,,Clear,100,2012-10-08 13:41:00
8:45 AM,77.0,55.4,47,29.91,10.0,ENE,4.6,-,N/A,,Clear,70,2012-10-08 14:45:00
9:00 AM,68,53,49,29.92,7,NE,2.2,,,,,40,2012-10-08 15:00:00
9:40 AM,82.4,53.6,37,29.96,10.0,East,6.9,-,N/A,,Clear,100,2012-10-08 15:40:00
10:49 AM,86.0,51.8,31,29.95,10.0,ESE,6.9,-,N/A,,Clear,110,2012-10-08 16:49:00
11:40 AM,89.6,46.4,22,29.95,10.0,East,10.4,-,N/A,,Clear,100,2012-10-08 17:40:00
11:50 AM,86,55,24,29.92,7,NE,2.2,,,,,40,2012-10-08 17:50:00
12:48 PM,91.4,44.6,20,29.94,10.0,South,6.9,-,N/A,,Clear,180,2012-10-08 18:48:00
1:44 PM,93.2,44.6,19,29.91,10.0,SE,9.2,-,N/A,,Clear,140,2012-10-08 19:44:00
2:45 PM,95,49,12,29.85,7,SW,2.2,,,,,230,2012-10-08 20:45:00
3:52 PM,95.0,51.8,23,29.87,10.0,SSE,5.8,-,N/A,,Clear,160,2012-10-08 21:52:00
4:45 PM,95.0,62.6,34,29.87,10.0,SSW,5.8,-,N/A,,Clear,200,2012-10-08 22:45:00
5:32 PM,96,58,19,29.81,7,SW,2.2,,,,,230,2012-10-08 23:32:00
5:48 PM,93.2,55.4,28,29.82,10.0,WSW,9.2,-,N/A,,Clear,250,2012-10-08 23:48:00
6:46 PM,91.4,51.8,26,29.87,10.0,SW,6.9,-,N/A,,Clear,220,2012-10-09 00:46:00
7:43 PM,86.0,51.8,31,29.89,10.0,SW,4.6,-,N/A,,Clear,230,2012-10-09 01:43:00
8:43 PM,80.6,57.2,45,29.87,8.0,WSW,4.6,-,N/A,,Clear,240,2012-10-09 02:43:00
9:46 PM,78.8,59.0,51,29.93,8.0,Calm,Calm,-,N/A,,Clear,0,2012-10-09 03:46:00
10:41 PM,77.0,57.2,50,29.94,10.0,Calm,Calm,-,N/A,,Clear,0,2012-10-09 04:41:00
11:40 PM,77.0,59.0,54,29.92,10.0,Calm,Calm,-,N/A,,Clear,0,2012-10-09 05:40:00